Flag for Ireland Weather past 2 weeks in Dublin, Ireland

Now
59 °F

Scattered clouds.


Feels Like: 60 °F
Forecast: 55 / 69 °F
Wind: 3 mph from North

Location: Dublin Airport

Current Time: Jul 1, 2015 at 6:34:06 AM

Latest Report: Jul 1, 2015 at 6:00 AM


Visibility: N/A

Pressure: 29.80 "Hg

Humidity: 88%

Dew point: 55 °F

Location of DublinLocation

Historic Weather in Dublin — Graph

°F

Dublin temperature yesterday

Maximum temperature yesterday: 77 °F (at 2:00 PM)
Minimum temperature yesterday: 59 °F (at 6:00 AM)
Average temperature yesterday: 68 °F

Past Weeks' High & Low Weather Summary

 TemperatureHumidityPressure
High77 °F (Jun 30, 2:00 PM)100% (Jun 23, 4:00 AM)30.24 "Hg (Jun 23, 4:00 AM)
Low39 °F (Jun 23, 3:00 AM)40% (Jun 26, 4:30 PM)29.80 "Hg (Jun 28, 6:30 AM)
Average60 °F74%30.04 "Hg
* Reported Jun 16 5:00 AM — Jul 1 5:30 AM, Dublin, Weather by CustomWeather, © 2015

Note: Actual official high and low records may vary slightly from our data, if they occured in-between our weather recording intervals... More about our weather records

Advertising

Dublin weather history for previous 24 hours

 ConditionsComfort  
Time TempWeatherWind HumidityBarometerVisibility
5:30 AM
Wed, Jul 1
57 °FPassing clouds.3 mph94%29.80 "HgN/A
5:00 AM57 °FPassing clouds.3 mph94%29.80 "HgN/A
4:30 AM59 °FPassing clouds.6 mph88%29.80 "HgN/A
4:00 AM59 °FPassing clouds.7 mph88%29.80 "HgN/A
3:30 AM59 °FPassing clouds.7 mph94%29.83 "HgN/A
3:00 AM61 °FPassing clouds.3 mph83%29.83 "HgN/A
2:30 AM63 °FPassing clouds.7 mph77%29.83 "HgN/A
2:00 AM64 °FPassing clouds.7 mph78%29.83 "HgN/A
1:30 AM64 °FPassing clouds.7 mph78%29.86 "HgN/A
1:00 AM61 °FPassing clouds.8 mph88%29.86 "HgN/A
12:30 AM61 °FPassing clouds.8 mph83%29.86 "HgN/A
12:00 AM61 °FPassing clouds.6 mph83%29.86 "HgN/A
11:30 PM
Tue, Jun 30
64 °FPassing clouds.1 mph78%29.86 "HgN/A
11:00 PM64 °FPassing clouds.6 mph78%29.86 "HgN/A
10:30 PM64 °FScattered clouds.6 mph78%29.86 "HgN/A
10:00 PM63 °FPassing clouds.10 mph83%29.86 "HgN/A
9:30 PM64 °FPassing clouds.10 mph78%29.86 "HgN/A
9:00 PM66 °FPassing clouds.12 mph73%29.86 "HgN/A
8:30 PM66 °FPassing clouds.9 mph68%29.89 "HgN/A
8:00 PM68 °FPassing clouds.10 mph64%29.89 "HgN/A
7:30 PM68 °FPassing clouds.16 mph69%29.89 "HgN/A
7:00 PM70 °FPassing clouds.14 mph64%29.89 "HgN/A
6:00 PM72 °FPassing clouds.14 mph61%29.89 "HgN/A
5:30 PM73 °FPassing clouds.20 mph57%29.89 "HgN/A
5:00 PM73 °FPassing clouds.20 mph53%29.89 "HgN/A
4:00 PM75 °FScattered clouds.17 mph57%29.92 "HgN/A
3:30 PM75 °FScattered clouds.17 mph57%29.92 "HgN/A
3:00 PM75 °FScattered clouds.17 mph61%29.92 "HgN/A
2:00 PM77 °FBroken clouds.17 mph54%29.95 "HgN/A
1:30 PM73 °FScattered clouds.13 mph61%29.95 "HgN/A
1:00 PM72 °FScattered clouds.15 mph65%29.95 "HgN/A
12:30 PM75 °FScattered clouds.18 mph61%29.95 "HgN/A
12:00 PM75 °FPassing clouds.16 mph57%29.95 "HgN/A
11:30 AM75 °FPassing clouds.8 mph47%29.95 "HgN/A
11:00 AM75 °FPassing clouds.10 mph47%29.95 "HgN/A
10:30 AM73 °FPassing clouds.7 mph57%29.95 "HgN/A
10:00 AM70 °FPassing clouds.8 mph57%29.95 "HgN/A
9:30 AM70 °FPassing clouds.7 mph53%29.95 "HgN/A
9:00 AM70 °FPassing clouds.7 mph60%29.95 "HgN/A
8:30 AM68 °FPassing clouds.7 mph73%29.98 "HgN/A
8:00 AM63 °FPassing clouds.9 mph88%29.95 "HgN/A
7:30 AM63 °FScattered clouds.8 mph88%29.95 "Hg5 mi
7:00 AM61 °FBroken clouds.7 mph94%29.95 "Hg5 mi
6:30 AM61 °FFog.8 mph94%29.95 "Hg3 mi
6:00 AM59 °FFog.7 mph100%29.95 "Hg2 mi
Weather by CustomWeather, © 2015

See weather overviewHow to use our weather pages